Date,TemperatureHighF,TemperatureAvgF,TemperatureLowF,DewpointHighF,DewpointAvgF,DewpointLowF,HumidityHigh,HumidityAvg,HumidityLow,PressureMaxIn,PressureMinIn,WindSpeedMaxMPH,WindSpeedAvgMPH,GustSpeedMaxMPH,PrecipitationSumIn
2012-1-1,66.6,62.5,60.5,58.3,56.9,55.3,88,82,72,29.80,29.69,12,7,0,0.00
2012-1-2,66.9,62.2,58.4,57.8,55.5,52.7,86,79,70,29.84,29.72,16,7,19,0.00
2012-1-3,63.1,59.0,56.8,55.2,51.3,46.9,88,76,63,29.90,29.79,12,6,32,0.00
2012-1-4,63.2,58.1,56.1,56.2,52.4,50.3,85,81,77,29.92,29.81,12,6,17,0.00
2012-1-5,65.2,60.0,56.8,57.8,55.7,54.3,93,86,76,29.90,29.78,15,6,0,0.01
2012-1-6,62.5,59.8,58.3,59.7,56.4,53.7,93,89,81,29.85,29.75,8,3,11,0.10
2012-1-7,67.1,61.0,56.2,59.1,55.6,51.9,93,83,73,29.88,29.75,13,5,0,0.01
2012-1-8,67.1,61.7,57.6,58.8,53.7,46.7,87,75,60,29.84,29.72,12,5,0,0.00
2012-1-9,67.4,62.4,58.4,57.9,51.6,44.6,81,68,57,29.82,29.70,16,7,25,0.00
2012-1-10,70.2,61.5,54.4,57.0,45.2,36.8,83,56,42,29.84,29.68,10,4,16,0.00
2012-1-11,69.2,61.4,56.7,58.4,53.1,49.7,83,74,64,29.77,29.64,12,4,17,0.00
2012-1-12,64.0,63.7,63.4,54.4,53.9,53.4,71,71,70,29.76,29.75,10,9,13,0.00
2012-1-13,67.6,61.2,56.7,57.9,53.8,50.7,86,77,64,29.80,29.67,13,6,24,0.00
2012-1-14,69.1,61.3,55.9,58.9,53.2,48.6,92,75,56,29.86,29.75,15,6,0,0.00
2012-1-15,63.9,60.6,58.5,57.0,54.0,45.7,89,79,57,29.89,29.77,16,6,0,0.00
2012-1-16,63.7,59.9,56.7,55.8,54.2,53.1,93,81,69,29.89,29.77,12,5,25,0.01
2012-1-17,67.8,60.3,56.6,57.2,51.3,47.3,91,72,63,29.88,29.75,13,5,17,0.01
2012-1-18,68.3,60.2,54.8,56.0,52.5,49.6,87,76,62,29.84,29.72,13,6,18,0.00
2012-1-19,65.8,59.5,56.0,55.4,47.4,35.1,84,65,38,29.83,29.72,14,6,17,0.00
2012-1-20,64.2,64.1,64.0,56.3,56.2,56.1,76,76,75,29.70,29.70,6,6,10,0.00
2012-1-21,69.7,61.7,55.7,56.7,48.7,35.4,89,65,39,29.80,29.66,21,8,0,0.00
2012-1-22,69.7,61.2,55.2,56.7,49.7,36.9,87,67,43,29.80,29.68,18,6,0,0.00
2012-1-23,68.5,61.3,54.5,55.8,50.3,44.1,84,68,57,29.79,29.68,11,4,11,0.00
2012-1-24,62.9,61.9,61.4,53.8,53.3,52.7,74,74,72,29.81,29.80,9,7,16,0.00
2012-1-25,66.6,59.9,56.3,58.5,53.3,50.6,86,79,71,29.81,29.69,9,2,22,0.00
2012-1-26,69.2,61.0,55.1,58.0,51.8,46.5,81,72,60,29.80,29.68,13,4,16,0.00
2012-1-27,62.1,61.5,61.0,57.2,56.5,55.8,85,84,83,29.79,29.78,10,8,14,0.00
2012-1-28,68.6,60.3,55.0,56.2,52.3,47.1,91,76,57,29.83,29.71,11,4,0,0.00
2012-1-29,67.4,61.0,56.3,57.7,51.8,44.0,89,72,57,29.83,29.71,16,6,0,0.05
2012-1-30,63.9,59.0,56.4,55.8,52.2,48.4,89,78,68,29.82,29.72,16,7,0,0.00
2012-1-31,62.9,58.5,56.4,56.3,52.6,50.1,86,81,75,29.83,29.71,18,8,25,0.00
2012-2-1,64.9,59.3,56.8,56.8,50.2,46.6,81,72,64,29.79,29.70,20,13,33,0.00
2012-2-2,60.5,58.4,57.1,51.8,49.7,47.2,76,73,65,29.75,29.67,15,9,0,0.00
2012-2-3,69.4,63.5,59.3,57.7,50.4,46.8,79,63,51,29.73,29.60,16,7,21,0.00
2012-2-4,69.8,61.1,57.1,57.1,53.5,46.6,91,77,53,29.75,29.61,17,5,0,0.02
2012-2-5,71.4,63.6,57.3,60.0,56.7,53.0,92,79,61,29.77,29.64,12,4,0,0.03
2012-2-6,70.1,62.4,58.9,59.8,55.8,52.3,89,80,61,29.76,29.67,10,4,14,0.00
2012-2-7,70.0,62.8,59.3,59.9,57.0,54.8,94,82,63,29.77,29.66,15,5,18,0.05
2012-2-8,67.9,61.8,59.6,60.8,57.5,56.4,91,86,70,29.80,29.70,9,3,13,0.26
2012-2-9,60.8,59.4,57.9,56.3,52.3,48.2,86,77,69,29.84,29.74,12,6,0,0.02
2012-2-10,68.3,61.2,57.0,58.8,51.9,46.2,77,71,64,29.85,29.74,13,6,9,0.00
2012-2-11,69.4,62.0,57.0,58.7,53.7,42.7,89,75,58,29.85,29.71,12,4,0,0.00
2012-2-12,67.5,61.7,56.7,57.7,55.0,51.6,88,79,67,29.85,29.72,14,4,0,0.00
2012-2-13,70.6,63.1,56.5,57.0,52.1,48.8,85,68,54,29.82,29.68,15,7,3,0.00
2012-2-14,68.2,59.9,55.2,54.2,49.5,45.6,85,69,57,29.83,29.73,16,5,18,0.00
2012-2-15,70.1,67.7,63.1,58.1,56.9,52.5,81,69,62,29.85,29.70,10,7,16,0.00
2012-2-16,68.7,61.3,56.9,56.4,53.3,50.6,84,75,60,29.87,29.75,17,9,24,0.00
2012-2-17,69.1,61.7,56.8,57.2,51.8,48.3,85,70,60,29.83,29.70,12,5,17,0.00
2012-2-18,70.2,62.4,57.0,57.1,50.3,40.6,87,66,46,29.81,29.66,12,3,0,0.00
2012-2-19,70.7,61.7,56.2,59.0,55.0,50.8,93,79,60,29.80,29.67,10,3,0,0.00
2012-2-20,62.3,58.2,56.9,57.0,54.0,51.7,92,86,80,29.84,29.71,10,3,14,0.00
2012-2-21,69.2,66.4,60.6,56.7,52.9,47.6,70,62,50,29.88,29.73,13,8,27,0.00
2012-2-22,68.5,60.9,55.2,56.2,52.6,49.0,85,74,58,29.81,29.67,14,6,22,0.00
2012-2-23,63.6,58.4,55.7,52.4,46.8,43.3,70,66,56,29.78,29.71,14,6,10,0.00
2012-2-24,69.6,61.1,56.0,57.8,50.0,39.6,85,68,49,29.79,29.67,18,3,0,0.00
2012-2-25,70.7,61.9,57.0,59.9,55.9,51.8,92,81,67,29.80,29.66,13,4,0,0.01
2012-2-26,63.3,59.4,55.6,57.3,54.6,49.7,90,84,78,29.80,29.70,14,6,0,0.00
2012-2-27,61.3,60.7,59.8,54.4,54.1,53.7,81,79,77,29.75,29.74,6,4,15,0.00
2012-2-28,66.3,58.7,52.2,55.6,47.3,37.0,86,67,46,29.86,29.73,17,8,27,0.00
2012-2-29,64.1,57.5,55.3,52.7,51.8,50.5,88,81,63,29.85,29.78,22,9,34,0.01
2012-3-1,67.2,60.6,56.5,57.4,51.2,46.3,87,72,61,29.82,29.68,17,10,23,0.00
2012-3-2,74.0,63.1,55.7,59.0,46.3,32.0,81,55,36,29.79,29.63,19,8,16,0.00
2012-3-3,74.5,64.3,57.0,60.6,55.5,49.6,89,74,57,29.75,29.60,11,4,0,0.00
2012-3-4,73.5,65.8,61.9,61.4,55.6,49.2,87,70,57,29.75,29.61,13,5,0,0.00
2012-3-5,63.5,62.1,61.1,58.7,57.9,56.9,89,86,81,29.80,29.63,14,8,21,0.13
2012-3-6,62.9,59.0,57.0,56.0,53.5,51.7,89,82,75,29.83,29.69,18,7,22,0.03
2012-3-7,67.8,61.2,56.3,57.6,52.9,48.7,90,75,62,29.79,29.63,23,10,31,0.01
2012-3-8,65.7,62.8,60.7,57.2,55.7,53.1,83,78,72,29.77,29.65,13,9,24,0.00
2012-3-9,67.5,57.8,56.4,56.6,51.6,50.0,84,80,68,29.76,29.68,16,9,20,0.00
2012-3-10,68.2,60.7,56.5,58.2,54.1,50.4,89,79,68,29.82,29.69,17,8,0,0.00
2012-3-11,70.8,60.8,58.1,58.5,54.9,52.6,91,81,63,29.80,29.68,16,7,0,0.00
2012-3-12,62.8,61.8,60.6,55.4,54.4,53.5,78,77,75,29.81,29.77,13,8,21,0.00
2012-3-13,67.2,61.1,58.0,58.7,53.6,43.7,89,77,56,29.79,29.68,15,8,0,0.00
2012-3-14,65.7,60.9,57.7,59.0,55.7,52.7,88,83,75,29.78,29.68,18,9,0,0.00
2012-3-15,69.4,61.3,56.8,58.4,54.8,52.4,87,79,66,29.81,29.70,19,10,23,0.00
2012-3-16,66.1,60.5,58.9,58.3,55.7,54.7,90,84,73,29.83,29.71,16,7,38,0.00
2012-3-17,66.5,60.5,57.5,59.1,54.8,50.8,88,82,73,29.85,29.75,13,6,0,0.00
2012-3-18,68.2,60.4,57.0,58.7,53.2,49.6,87,77,65,29.85,29.74,18,7,0,0.00
2012-3-19,70.2,61.6,54.9,58.0,53.5,49.2,85,75,64,29.83,29.69,17,7,28,0.00
2012-3-20,69.7,59.7,55.8,58.9,54.2,51.5,89,82,65,29.76,29.62,7,2,12,0.00
2012-3-21,69.4,58.0,55.2,59.6,54.2,52.6,92,87,71,29.77,29.69,10,3,11,0.01
2012-3-22,70.6,62.8,58.6,59.9,56.1,52.8,87,79,69,29.78,29.66,11,6,17,0.00
2012-3-23,72.6,63.6,56.8,59.9,54.8,49.7,85,73,61,29.79,29.70,11,6,14,0.00
2012-3-24,71.6,61.8,56.8,60.1,56.6,52.3,92,83,63,29.79,29.69,9,2,0,0.38
2012-3-25,72.7,62.7,57.4,59.2,54.7,50.0,89,76,47,29.82,29.67,13,3,0,0.00
2012-3-26,67.0,61.3,58.7,57.3,50.5,47.4,79,68,55,29.79,29.65,9,2,7,0.00
2012-3-27,73.7,64.3,57.1,59.6,54.6,51.2,84,72,53,29.80,29.68,10,4,14,0.00
2012-3-28,69.3,61.5,57.9,60.8,57.0,53.5,90,85,73,29.76,29.65,14,5,0,0.00
2012-3-29,71.1,63.9,58.1,60.3,55.0,50.5,88,73,62,29.75,29.65,14,8,17,0.00
2012-3-30,74.7,65.1,59.1,61.7,58.2,54.7,88,79,64,29.76,29.66,13,5,17,0.00
2012-3-31,76.1,66.0,59.4,62.6,58.1,51.4,92,76,61,29.77,29.62,12,4,0,0.00
2012-4-1,73.6,64.3,59.8,62.1,59.0,56.8,94,84,61,29.73,29.60,12,2,0,0.89
2012-4-2,66.5,62.0,60.8,61.2,58.5,57.5,94,89,82,29.71,29.64,5,2,3,0.00
2012-4-3,69.6,63.6,59.3,63.0,59.6,55.1,93,87,75,29.77,29.64,7,1,12,0.08
2012-4-4,65.5,60.7,58.9,58.6,56.1,54.9,89,85,77,29.76,29.67,4,1,6,0.00
2012-4-5,74.1,64.0,59.6,63.9,58.7,54.5,93,83,62,29.77,29.63,10,2,0,0.13
2012-4-6,72.2,64.6,58.9,63.2,58.8,55.4,90,82,68,29.78,29.67,9,2,0,0.01
2012-4-7,72.1,67.0,60.2,64.0,60.7,55.4,89,80,70,29.76,29.68,10,4,0,0.00
2012-4-8,69.1,62.5,59.0,59.4,55.1,45.7,92,77,54,29.81,29.73,13,4,0,0.00
2012-4-9,71.5,63.7,58.1,59.3,52.3,45.3,84,67,54,29.78,29.65,12,6,19,0.00
2012-4-10,72.4,63.4,57.1,59.4,55.9,49.8,91,77,60,29.79,29.68,14,4,0,0.00
2012-4-11,69.1,62.0,57.7,59.9,57.0,54.3,92,84,69,29.84,29.73,8,2,12,0.01
2012-4-12,74.2,65.1,58.0,58.3,54.5,51.8,85,70,46,29.85,29.71,12,3,13,0.01
2012-4-13,73.8,62.9,58.2,55.9,50.1,48.0,71,63,48,29.83,29.75,9,2,13,0.00
2012-4-14,74.0,64.2,57.3,60.7,57.0,53.1,90,78,59,29.82,29.67,13,4,0,0.00
2012-4-15,74.7,64.4,58.9,61.1,57.0,52.2,91,78,58,29.79,29.66,13,6,0,0.00
2012-4-16,74.3,63.9,59.4,63.9,58.3,53.0,94,83,62,29.77,29.65,9,2,0,1.20
2012-4-17,68.5,61.3,58.2,62.1,57.8,54.5,94,88,73,29.80,29.69,6,1,0,1.53
2012-4-18,64.7,62.0,60.6,61.4,59.9,58.6,94,93,88,29.74,29.70,4,2,6,0.42
2012-4-19,71.2,66.2,62.8,63.2,61.1,59.0,94,84,68,29.77,29.66,8,3,12,0.80
2012-4-20,69.4,67.6,66.4,62.3,61.6,60.8,85,81,76,29.76,29.75,7,4,7,0.00
2012-4-21,72.4,63.8,59.4,64.2,59.3,55.8,94,86,73,29.79,29.64,7,2,0,0.76
2012-4-22,74.3,64.6,58.9,64.1,57.0,43.7,93,77,47,29.79,29.66,11,3,0,0.01
2012-4-23,66.7,62.0,58.4,58.7,54.5,50.4,84,77,68,29.80,29.68,15,6,18,0.00
2012-4-24,68.5,64.6,61.7,59.9,57.7,56.0,82,79,72,29.79,29.70,14,7,19,0.00
2012-4-25,66.6,61.6,58.4,59.3,56.2,54.1,89,83,75,29.78,29.70,14,6,16,0.00
2012-4-26,72.1,66.9,61.2,59.7,57.4,55.5,87,72,61,29.80,29.70,6,3,11,0.05
2012-4-27,67.7,64.5,60.7,61.3,59.4,57.1,92,84,75,29.81,29.73,4,1,5,0.11
2012-4-30,72.4,70.5,67.2,62.7,61.6,60.3,80,74,66,29.74,29.70,12,6,17,0.00
2012-5-2,71.2,69.6,67.3,63.1,61.4,60.1,81,76,70,29.74,29.73,9,6,11,0.05
2012-5-3,69.8,67.6,64.9,62.2,61.6,61.2,88,81,75,29.66,29.63,6,5,15,0.00
2012-5-4,72.9,67.6,63.0,63.3,61.9,60.2,93,83,69,29.75,29.67,7,3,14,0.06
2012-5-7,72.1,66.0,61.2,62.6,59.8,57.1,93,81,63,29.76,29.68,8,2,11,0.54
2012-5-8,72.2,69.4,67.6,63.2,59.5,56.4,82,71,63,29.76,29.75,8,5,11,0.01
2012-5-9,71.6,67.2,65.2,62.5,60.7,59.8,85,80,69,29.64,29.63,8,4,12,0.00
2012-5-10,72.6,70.2,64.8,62.8,60.8,57.1,89,73,61,29.69,29.60,12,6,17,0.00
2012-5-11,71.2,69.1,67.1,62.5,61.1,60.0,79,76,72,29.74,29.73,7,5,19,0.00
2012-5-14,74.2,71.6,69.9,62.1,60.4,59.3,70,68,65,29.71,29.67,5,2,11,0.00
2012-5-15,69.6,68.6,67.3,61.7,61.1,60.5,79,77,75,29.74,29.72,5,3,9,0.00
2012-7-21,70.0,64.7,62.2,61.9,59.8,58.6,89,84,74,29.75,29.66,10,3,0,0.01
2012-7-23,66.4,65.7,64.7,60.7,60.1,59.3,85,82,79,29.80,29.78,10,6,19,0.00
2012-7-24,68.4,64.8,62.2,61.3,59.6,56.7,91,83,76,29.81,29.70,7,3,11,0.13
2012-7-26,70.6,70.2,69.6,60.7,60.2,59.8,72,71,69,29.71,29.71,4,3,9,0.00
2012-7-27,70.9,68.3,66.5,63.5,62.2,60.5,84,81,75,29.73,29.66,10,6,20,0.00
2012-8-1,74.1,70.0,66.5,64.8,61.7,59.6,89,75,64,29.84,29.72,11,5,16,0.00
2012-8-3,72.5,70.3,67.1,62.2,60.3,58.1,77,71,61,29.77,29.71,12,7,17,0.00
2012-8-6,72.3,68.8,63.8,61.9,59.4,52.7,91,73,57,29.78,29.66,9,4,11,0.01
2012-8-7,70.2,68.5,66.0,61.4,59.8,58.7,78,74,70,29.76,29.75,7,3,7,0.01
2012-8-9,73.7,66.3,62.4,64.3,61.9,59.8,94,86,64,29.72,29.64,8,2,11,0.56
2012-8-10,71.3,69.3,62.6,63.2,62.0,60.8,94,78,73,29.77,29.72,7,2,11,0.16
2012-8-14,70.7,64.1,60.6,62.9,60.4,58.5,95,88,69,29.78,29.69,8,2,12,1.31
2012-8-16,71.5,68.9,66.2,63.2,61.7,59.5,82,78,73,29.82,29.79,9,6,18,0.00
2012-10-2,75.6,74.5,73.8,64.1,63.7,63.0,71,69,67,29.95,29.94,5,4,9,0.00
2012-11-12,64.0,61.3,59.9,60.1,58.4,56.8,93,90,87,29.77,29.67,7,2,0,0.01
2012-11-13,70.0,63.9,59.5,62.2,59.1,55.7,92,85,73,29.80,29.66,11,3,10,0.02
2012-11-14,65.1,62.4,60.4,61.3,59.4,58.4,94,90,85,29.81,29.68,11,3,20,0.17
2012-11-15,63.1,58.6,57.0,58.8,54.6,53.7,90,86,83,29.83,29.74,8,3,9,0.00
2012-11-16,63.9,61.9,60.7,59.6,58.4,57.6,91,88,86,29.80,29.73,6,1,0,0.00
2012-11-17,65.3,61.6,58.9,61.6,58.4,56.1,92,89,82,29.84,29.72,11,2,0,0.42
2012-11-18,66.9,61.5,59.1,59.8,57.0,55.2,92,85,74,29.85,29.75,11,4,0,0.00
2012-11-19,61.8,60.0,58.9,58.5,56.2,55.3,92,87,83,29.82,29.76,5,2,1,0.00
2012-11-20,65.7,63.4,61.6,61.3,60.2,58.9,94,89,82,29.76,29.65,9,3,31,0.06
2012-11-21,64.1,61.8,60.7,60.6,58.9,57.9,93,90,87,29.80,29.68,8,3,18,0.04
2012-11-22,65.1,60.9,57.6,59.7,57.2,54.7,93,88,81,29.84,29.74,9,2,5,0.09
2012-11-23,65.8,59.0,54.9,59.4,53.7,50.7,89,83,75,29.85,29.71,14,5,0,0.00
2012-11-24,64.7,59.7,54.3,58.8,54.8,50.3,91,84,77,29.84,29.72,13,5,0,0.00
2012-11-25,64.2,60.7,58.5,58.7,56.5,54.3,92,86,78,29.84,29.72,12,4,0,0.22
2012-11-26,66.9,61.8,59.4,61.6,58.7,57.1,93,90,81,29.83,29.71,10,3,14,0.22
2012-11-27,70.8,65.0,60.8,63.0,59.5,56.4,88,83,70,29.82,29.69,9,4,20,0.00
2012-11-28,71.1,63.8,61.7,60.0,58.5,54.0,90,84,56,29.82,29.72,12,3,22,0.02
2012-11-29,65.8,61.9,59.8,59.8,57.5,54.4,92,86,72,29.85,29.74,13,4,15,0.13
2012-11-30,63.9,61.4,59.7,58.7,57.3,55.5,93,87,81,29.86,29.76,7,3,13,0.02
2012-12-1,66.4,62.0,58.9,58.6,53.2,44.8,93,74,55,29.87,29.75,8,2,0,0.02
2012-12-2,68.5,61.6,57.3,60.6,57.1,53.1,92,85,74,29.85,29.74,10,3,0,0.01
2012-12-3,67.1,61.9,58.7,59.5,57.3,55.7,92,85,75,29.84,29.73,11,4,15,0.00
2012-12-4,68.2,60.0,57.0,60.0,54.9,52.8,89,83,73,29.85,29.75,5,2,7,0.00
2012-12-11,71.2,68.8,66.1,63.3,61.6,59.7,82,78,73,29.67,29.64,9,5,17,0.00
2012-12-12,63.6,61.9,60.5,55.7,55.4,54.8,84,79,73,29.73,29.70,8,4,15,0.01
2012-12-13,66.5,63.7,61.0,59.4,57.2,55.3,89,79,73,29.83,29.73,11,6,17,0.00
2012-12-14,69.3,66.0,62.4,58.6,57.0,54.8,86,73,63,29.82,29.71,9,5,18,0.00
2012-12-17,69.6,66.8,64.1,59.6,58.5,56.8,78,75,70,29.79,29.73,8,6,13,0.00
2012-12-18,68.8,67.6,65.3,58.3,56.6,53.2,71,68,65,29.79,29.69,9,6,17,0.00
2012-12-21,66.1,62.9,59.6,59.4,57.8,56.4,90,84,78,29.77,29.67,12,6,20,0.00
2013-1-1,68.7,61.8,57.5,60.1,55.7,51.5,89,81,72,29.79,29.68,12,6,0,0.00